Weather in Kishaly

Russia / Republic of Mordovia     54˚22′30″N   43˚12′02″E
temp.,
°C
wind,
m/s
gust,
m/s
humid.,
%
clouds,
%
prec.,
mm/h
press.,
hPa
HPBL,
m
18 january, mon
mon1800:00−24˚e119942 0.0 101825
03:00−25˚ne129863 0.0 101926
06:00−25˚ne119960 0.0 101925
09:00−24˚ene129775 0.0 102036
12:00−22˚se1293100 0.0 1020140
15:00−21˚ne1294100 0.0 101996
18:00−21˚e1195100 0.0 101942
21:00−20˚ne1194100 0.0 101971
19 january, tue
tue1900:00−20˚ene1194100 0.0 1018105
03:00−20˚nne1195100 0.0 101879
06:00−20˚nne1296100 0.1 101757
09:00−20˚ne1196100 0.1 101851
12:00−18˚n0192100 0.3 1017226
15:00−17˚nnw1194100 0.6 1016205
18:00−18˚nw009896 0.2 101636
21:00−19˚nw129893 0.3 101637
20 january, wed
wed2000:00−18˚nw229795 0.1 101653
03:00−18˚wnw229597 0.1 101751
06:00−18˚wnw2495100 0.0 1017163
09:00−17˚wnw2596100 0.2 1018248
12:00−15˚wnw3591100 0.1 1018326
15:00−14˚w369399 0.1 1019272
18:00−17˚w359889 0.0 102196
21:00−18˚w359991 0.1 102289
21 january, thu
thu2100:00−18˚w359978 0.0 102393
03:00−19˚wsw369875 0.0 1024117
06:00−19˚wsw369968 0.0 1024103
09:00−19˚sw479871 0.0 1024154
12:00−15˚sw479394 0.0 1023256
15:00−13˚ssw6128996 0.0 1020346
18:00−12˚ssw71683100 0.0 1018493
21:00−10˚sw81592100 0.6 1015632
22 january, fri
fri2200:00−8˚sw81791100 0.4 1013669
03:00−3˚sw81794100 1.3 1011734
06:00wsw91696100 1.7 1009929
09:00+1˚w71490100 1.7 1010907
12:00+1˚w61392100 0.0 1011752
15:00+1˚w61299100 0.1 1011553
18:00+1˚w51197100 0.4 1013426
21:00wsw51098100 0.5 1013468